Molokai, HI

6:19 AM HST on February 25, 2018 (GMT -1000)
Molokai

Weather History for PHMK - December, 2011

Change the Weather History Date:

Saturday, December 3, 2011

  Actual Average Record
Temperature  
Mean Temperature 73 °F -  
Max Temperature 80 °F 80 °F 86 °F (1984)
Min Temperature 66 °F 66 °F 61 °F (1959)
Cooling Degree Days 8    
Growing Degree Days 23 (Base 50)    
Moisture  
Dew Point 65 °F    
Average Humidity 74    
Maximum Humidity 90    
Minimum Humidity 58    
Precipitation  
Precipitation 0.00 in - - ()
Sea Level Pressure  
Sea Level Pressure 30.05 in    
Wind  
Wind Speed 6 mph (NE)    
Max Wind Speed 13 mph    
Max Gust Speed 25 mph    
Visibility 10 miles    
Events      
Averages and records for this station are not official NWS values.
T = Trace of Precipitation, MM = Missing Value Source: NWS Daily Summary

Daily Weather History Graph

Daily Weather History Graph

Search for Another Location

Airport or City:

Trip Planner

Search our weather history database for the weather conditions in past years. The results will help you decide how hot, cold, wet, or windy it might be!

Date:

Astronomy

Dec. 03, 2011 Rise Set
Actual Time 6:50 AM HST 5:45 PM HST
Civil Twilight 6:26 AM HST 6:09 PM HST
Nautical Twilight 5:59 AM HST 6:37 PM HST
Astronomical Twilight 5:31 AM HST 7:04 PM HST
Moon 1:20 PM HST (12/3) 1:08 AM HST (12/3)
Length of Visible Light 11h 43m
Length of Day
10h 55m
Waxing Gibbous, 64% of the Moon is Illuminated
Dec 3
Waxing Gibbous
Dec 10
Full
Dec 17
Last Quarter
Dec 24
New
Dec 31
First Quarter

Hourly Weather History & Observations

Time (HST) Temp. Heat Index Dew Point Humidity Pressure Visibility Wind Dir Wind Speed Gust Speed Precip Events Conditions
12:54 AM 68.0 °F - 64.0 °F 87% 30.04 in 10.0 mi Calm Calm - N/A   Clear
1:54 AM 69.1 °F - 64.0 °F 84% 30.04 in 10.0 mi ENE 4.6 mph - N/A   Clear
2:54 AM 70.0 °F - 64.9 °F 84% 30.02 in 10.0 mi ENE 4.6 mph - N/A   Clear
3:54 AM 66.9 °F - 64.0 °F 90% 30.02 in 10.0 mi NW 4.6 mph - N/A   Clear
4:54 AM 72.0 °F - 66.9 °F 84% 30.02 in 10.0 mi NNE 3.5 mph - N/A   Clear
5:54 AM 70.0 °F - 64.0 °F 81% 30.03 in 10.0 mi NE 4.6 mph - N/A   Clear
6:54 AM 73.0 °F - 68.0 °F 84% 30.04 in 10.0 mi NE 4.6 mph - N/A   Overcast
7:54 AM 72.0 °F - 68.0 °F 87% 30.05 in 10.0 mi ENE 5.8 mph - N/A   Mostly Cloudy
8:54 AM 75.9 °F - 66.9 °F 74% 30.07 in 10.0 mi North 8.1 mph - N/A   Clear
9:54 AM 77.0 °F - 64.9 °F 66% 30.07 in 10.0 mi NE 8.1 mph - N/A   Overcast
10:54 AM 80.1 °F 81.9 °F 64.9 °F 60% 30.06 in 10.0 mi NNE 12.7 mph 21.9 mph N/A   Partly Cloudy
11:54 AM 80.1 °F 81.7 °F 64.0 °F 58% 30.05 in 10.0 mi NE 10.4 mph 18.4 mph N/A   Scattered Clouds
12:54 PM 80.1 °F 81.9 °F 64.9 °F 60% 30.03 in 10.0 mi NNE 10.4 mph 16.1 mph N/A   Overcast
1:54 PM 79.0 °F - 64.9 °F 62% 30.02 in 10.0 mi NNE 9.2 mph 21.9 mph N/A   Scattered Clouds
2:54 PM 78.1 °F - 66.0 °F 66% 30.02 in 10.0 mi NE 12.7 mph 25.3 mph N/A   Scattered Clouds
3:54 PM 75.9 °F - 66.0 °F 71% 30.02 in 10.0 mi NE 12.7 mph 23.0 mph N/A   Scattered Clouds
4:54 PM 75.0 °F - 64.9 °F 71% 30.03 in 10.0 mi NE 12.7 mph 21.9 mph N/A   Partly Cloudy
5:54 PM 73.0 °F - 64.9 °F 76% 30.06 in 10.0 mi NNE 10.4 mph 19.6 mph N/A   Partly Cloudy
6:54 PM 73.0 °F - 64.0 °F 73% 30.07 in 10.0 mi NE 12.7 mph 19.6 mph N/A   Clear
7:54 PM 73.0 °F - 64.9 °F 76% 30.08 in 10.0 mi NNE 12.7 mph 23.0 mph N/A   Clear
8:54 PM 73.0 °F - 64.0 °F 73% 30.08 in 10.0 mi NE 9.2 mph 18.4 mph N/A   Clear
9:54 PM 72.0 °F - 62.1 °F 71% 30.09 in 10.0 mi NE 6.9 mph - N/A   Clear
10:54 PM 71.1 °F - 59.0 °F 66% 30.09 in 10.0 mi East 9.2 mph - N/A   Clear
11:54 PM 71.1 °F - 61.0 °F 70% 30.09 in 10.0 mi Variable 5.8 mph - N/A   Clear